Погода в Яргунькине

Россия / Чувашская Республика     55°46′02″N   46°41′27″E
темп.,
°C
ветер,
м/с
пор.,
м/с
влажн.,
%
обл.,
%
осадки,
мм/ч
давл.,
гПа
погр.,
м
21 января, пт
пт2100:00−9ююз61589100 0.0 1015412
03:00−11ююз6148993 0.0 1015339
06:00−12ю61389100 0.0 1015316
09:00−12ю61589100 0.0 1015340
12:00−10ю61685100 0.0 1015449
15:00−8ююв61584100 0.0 1014483
18:00−9ююв61587100 0.0 1013494
21:00−9юв71587100 0.0 1012543
22 января, сб
сб2200:00−8юв81694100 0.4 1012623
03:00−8ююв81492100 1.4 1012582
06:00−8ююв6129395 0.3 1013427
09:00−10юв5109598 0.3 1015242
12:00−8юв599595 0.0 1017296
15:00−8вюв489699 0.1 1018156
18:00−9вюв3897100 0.0 1019143
21:00−7вюв3697100 0.1 1020156
23 января, вс
вс2300:00−6юв3597100 0.4 1021126
03:00−12юв2210087 0.4 102310
06:00−13вюв1110099 0.0 10249
09:00−11юв11100100 0.1 102610
12:00−5ююз0195100 0.1 1028100
15:00−6ссз1197100 0.1 102919
18:00−8всв1198100 0.1 103210
21:00−9юв1199100 0.1 103310
24 января, пн
пн2400:00−9в1198100 0.0 103510
03:00−8в1297100 0.1 103640
06:00−8в229896 0.2 103617
09:00−9вюв2398100 0.3 103742
12:00−6юв239394 0.1 1037156
15:00−9в229584 0.1 103710
18:00−15юв229731 0.0 103813
21:00−19вюв22985 0.0 10389
25 января, вт
вт2500:00−20ююв22995 0.0 103710
03:00−21ююв221005 0.0 103610
06:00−21ю2210037 0.0 103515
09:00−20ююз2210020 0.0 103425
12:00−11ююз25905 0.0 1032133
15:00−12ю22957 0.0 103017
18:00−16ю349726 0.0 102942
21:00−16ююз3892100 0.0 1028101